This demonstration page uses our WeatherBlox Daily Observations layout. Learn more.

Left ArrowRight Arrow

41.55636, -103.73856

Hourly Observations for October 11, 2021

Temp ( °F °C ) Dew Point ( °F °C ) Humidity (%) Winds ( mph kmh ) Pressure ( in mb ) Visibility ( mi km ) Precip ( " mm )
12:58 am 00:58 Clear 43 6 28 -2.5 55 55 SW 5 7 29.83 1010 10 16 0.00 0.00
1:58 am 01:58 Clear 42 5.4 28 -2.3 58 58 SW 5 7 29.83 1010 10 16 0.00 0.00
2:58 am 02:58 Clear 42 5.3 28 -2 60 60 WSW 8 13 29.84 1010 10 16 0.00 0.00
3:58 am 03:58 Clear 42 5.6 29 -1.6 60 60 SW 8 13 29.84 1010 10 16 0.00 0.00
4:58 am 04:58 Clear 41 5.1 29 -1.4 63 63 WSW 7 11 29.85 1011 10 16 0.00 0.00
5:58 am 05:58 Clear 38 3.6 28 -2.1 67 67 NW 5 7 29.85 1011 10 16 0.00 0.00
6:58 am 06:58 Clear 37 3 28 -2.3 68 68 WNW 5 7 29.87 1011 10 16 0.00 0.00
7:58 am 07:58 Sunny 40 4.3 30 -1.3 67 67 SW 5 7 29.88 1012 10 16 0.00 0.00
8:58 am 08:58 Sunny 49 9.6 30 -1.1 48 48 Calm 29.87 1011 10 16 0.00 0.00
9:58 am 09:58 Sunny 56 13.5 30 -1.3 36 36 ESE 7 11 29.83 1010 10 16 0.00 0.00
10:58 am 10:58 Sunny 60 15.5 29 -1.8 31 31 SE 13 20 29.81 1010 10 16 0.00 0.00
11:58 am 11:58 Sunny 62 16.7 29 -1.8 28 28 SE 13 20 29.80 1009 10 16 0.00 0.00
12:58 pm 12:58 Sunny 64 17.8 29 -1.8 26 26 SSE 15 24 29.76 1008 10 16 0.00 0.00
1:58 pm 13:58 Sunny 65 18.6 29 -1.8 25 25 SE 16 26 29.73 1007 10 16 0.00 0.00
2:58 pm 14:58 Sunny 66 18.8 28 -2.1 24 24 SSE 10 17 29.73 1007 10 16 0.00 0.00
3:58 pm 15:58 Sunny 66 18.9 28 -2.2 24 24 SE 18 30 29.72 1007 10 16 0.00 0.00
4:58 pm 16:58 Sunny 64 18 28 -2.3 25 25 SE 14 22 29.72 1007 10 16 0.00 0.00
5:58 pm 17:58 Sunny 59 15.2 28 -2.4 30 30 ESE 12 19 29.76 1008 10 16 0.00 0.00
6:58 pm 18:58 Clear 53 11.5 27 -2.6 38 38 ESE 14 22 29.78 1009 10 16 0.00 0.00
7:58 pm 19:58 Clear 52 11.1 26 -3.4 36 36 ESE 14 22 29.80 1009 10 16 0.00 0.00
8:58 pm 20:58 Partly Cloudy 55 12.8 27 -2.6 34 34 ESE 16 26 29.77 1008 10 16 0.00 0.00
9:58 pm 21:58 Mostly Cloudy 54 12.4 29 -1.9 37 37 E 15 24 29.77 1008 10 16 0.00 0.00
10:58 pm 22:58 Mostly Cloudy 50 9.9 29 -1.4 46 46 E 13 20 29.77 1008 10 16 0.00 0.00
11:58 pm 23:58 Clear 48 8.7 30 -1.2 50 50 E 13 20 29.76 1008 10 16 0.00 0.00

Powered by AerisWeather